Location: Ertinghausen
(51.6624°N, 9.7874°E)
Time: 10:12:44
(UTC+00:00)

Genesis I - Pass Details

Date: 23 May 2024
Orbit: 433 x 466 km, 64.5° (Epoch: 18 June)

Event Time Altitude Azimuth Distance (km) Brightness Sun altitude
Exits shadow 02:06:06 12° 209° (SSW) 1,449 4.8 -8.9°
Maximum altitude 02:09:15 63° 129° (SE) 511 3.2 -8.5°
Drops below altitude 10° 02:12:47 10° 48° (NE) 1,605 7.4 -8.2°
Sets 02:14:56 0° 45° (NE) 2,490 9.2 -8.0°
